[[{"header":{"parameterUnit":"m.s-1","parameterCategory":1,"la1":30.2991,"la2":30.254,"lo1":-89.0895,"lo2":-89.0444,"dy":0.0017,"dx":0.0017,"nx":28,"ny":28,"refTime":"2025-01-16T03:00:00:Z","depth":0,"parameterNumber":2,"parameterNumberName":"U-component_of_WINDS"},"data":[0,0,0,0,0,0,0,0,0,0,0,0,0,0,0,0,0,0,0,0,0,0,0,0,0,0,0,0,0,0,0,0,0,0,0,0,0,0,0,0,0,0,0,0,0,0,0,0,0,0,0,0,0,0,0,0,0,0,0.2213,0.2213,0,0.2211,0.2211,0.2211,0.2262,0.2263,0.2265,0.2266,0.2261,0.2259,0.2258,0,0,0,0,0,0,0,0,0,0,0,0,0,0.2259,0.2258,0.2213,0.2213,0.2213,0.2211,0.2211,0.2211,0.2262,0.2264,0.2265,0.2267,0.2261,0.226,0.2258,0,0,0,0,0,0,0,0,0,0,0,0,0,0.2246,0.2258,0.2213,0.2238,0.2241,0.2211,0.2211,0.2211,0.2261,0.2264,0.2266,0.2268,0.2262,0.226,0.2258,0.2203,0,0,0.2251,0.225,0,0,0,0,0,0,0,0,0.2247,0.2245,0.2235,0.2237,0.2239,0.2239,0.2225,0.2208,0.2261,0.2253,0.2266,0.2269,0.2252,0.225,0.2245,0.2203,0.2203,0.2251,0.225,0.2249,0.2248,0,0,0,0,0,0,0,0.2248,0.2245,0.2212,0.2234,0.2237,0.2249,0.225,0.2222,0.2241,0.2254,0.2258,0.2257,0.2253,0.2247,0.2246,0.2202,0.2251,0.2249,0.2248,0.2247,0.2115,0.2113,0,0,0,0,0,0,0.2246,0.2245,0.2212,0.2212,0.2248,0.2247,0.2247,0.2237,0.2241,0.2244,0.2255,0.226,0.225,0.2248,0.2246,0.2181,0.2249,0.2247,0.2245,0.2117,0.2115,0.2112,0,0,0,0,0,0,0.2247,0.2242,0.2212,0.223,0.2227,0.2244,0.2232,0.2236,0.223,0.2242,0.2246,0.2246,0.2252,0.2249,0.2214,0.2182,0.2246,0.2244,0.212,0.2116,0.2113,0.2053,0,0,0,0,0,0,0.2248,0.2242,0.2222,0.2229,0.2226,0.218,0.223,0.2234,0.2226,0.2232,0.2234,0.2237,0.2253,0.2216,0.2211,0.218,0.2242,0.2123,0.2118,0.2114,0.2058,0.2048,0.2039,0,0,0,0,0,0.2249,0.2204,0.2221,0.2216,0.2201,0.2179,0.2177,0.2197,0.2224,0.2203,0.2211,0.2237,0.2187,0.2212,0.2207,0.2175,0.2125,0.212,0.2115,0.2062,0.205,0.204,0,0,0,0,0,0,0.2192,0.2206,0.2224,0.218,0.2178,0.2187,0.2162,0.2184,0.2173,0.2178,0.2204,0.2204,0.2164,0.2167,0.2195,0.2122,0.216,0.2154,0.2122,0.2111,0.2102,0.2101,0.224,0,0,0,0,0,0.2174,0.2156,0.2169,0.2129,0.2127,0.2145,0.2136,0.2152,0.215,0.2149,0.2155,0.2151,0.2135,0.2123,0.2109,0.2059,0.206,0.2035,0.2025,0.2018,0.2011,0.1985,0.1973,0.2096,0.2096,0.2096,0,0,0.2137,0.2143,0.2129,0.2117,0.2118,0.2097,0.2143,0.2119,0.2104,0.2145,0.2112,0.2116,0.2114,0.2071,0.2053,0.2072,0.1978,0.2012,0.2005,0.2003,0.1978,0.1967,0.1956,0.2092,0.2093,0.2093,0,0,0.2059,0.2062,0.2029,0.2028,0.2029,0.2041,0.2033,0.204,0.2044,0.2012,0.2042,0.2024,0.1996,0.1993,0.1988,0.1911,0.1933,0.1905,0.1857,0.183,0.1821,0.1812,0.1783,0.1773,0.1899,0.1899,0.1899,0,0.2012,0.1983,0.2008,0.1983,0.1977,0.2015,0.1981,0.1979,0.1974,0.1969,0.1991,0.1957,0.1958,0.1915,0.1896,0.1891,0.1882,0.1904,0.182,0.1812,0.1805,0.1777,0.1766,0.1896,0.1896,0.1897,0.1897,0,0.1925,0.1905,0.1878,0.1874,0.1865,0.1835,0.1855,0.1843,0.1861,0.1871,0.1838,0.1841,0.1828,0.182,0.1836,0.1779,0.179,0.1816,0.1854,0.1789,0.1764,0.1753,0.1891,0.1892,0.1893,0.1894,0,0,0.1808,0.182,0.1809,0.1807,0.1812,0.1796,0.1768,0.1757,0.1745,0.1742,0.1718,0.1694,0.1718,0.1712,0.1729,0.1707,0.1644,0.1735,0.1736,0.1717,0.158,0.1559,0.1546,0.166,0.1658,0.1657,0.1579,0,0.1731,0.1684,0.1707,0.1658,0.1639,0.1676,0.1652,0.1651,0.166,0.1645,0.1655,0.1637,0.1671,0.1668,0.1647,0.1656,0.1616,0.1662,0.1637,0.1636,0.1634,0.1533,0.1511,0.1437,0.157,0.1568,0.1567,0,0.1634,0.1627,0.1576,0.1584,0.1577,0.1555,0.1546,0.1532,0.1532,0.154,0.1535,0.1557,0.153,0.157,0.1533,0.1563,0.1555,0.1558,0.1556,0.1552,0.1595,0.1525,0.1414,0.1402,0.1552,0.1553,0.1554,0,0.1551,0.1529,0.1496,0.1494,0.1503,0.1486,0.1489,0.1492,0.1484,0.1477,0.1471,0.1461,0.1454,0.1445,0.1464,0.1492,0.1424,0.1465,0.1428,0.1428,0.141,0.141,0.1294,0.1408,0.1408,0.1409,0.1409,0,0.1461,0.1428,0.1459,0.1438,0.1402,0.1429,0.1393,0.14,0.1402,0.1382,0.1415,0.1395,0.1423,0.1406,0.1421,0.1387,0.1385,0.139,0.1393,0.1385,0.1384,0.1378,0.1383,0.1406,0.1406,0.1407,0.1407,0,0.1361,0.1381,0.1347,0.1359,0.1362,0.1334,0.1344,0.1325,0.1338,0.1313,0.1309,0.1327,0.131,0.1329,0.1312,0.1322,0.1276,0.1289,0.1276,0.1278,0.1239,0.1242,0.1113,0.1097,0.1223,0.1222,0.1221,0,0.1301,0.1277,0.1287,0.1277,0.1278,0.1261,0.1254,0.128,0.1271,0.127,0.1251,0.1236,0.1226,0.1196,0.1208,0.1195,0.1206,0.1162,0.1204,0.1197,0.1203,0.1204,0.1201,0.1153,0.1151,0.115,0.1149,0,0.1192,0.1203,0.1192,0.1183,0.1173,0.1168,0.1165,0.1154,0.1182,0.117,0.1153,0.1145,0.1129,0.1114,0.1105,0.1108,0.1132,0.1136,0.1127,0.1117,0.1109,0.1111,0.125,0.1138,0.1139,0.114,0.1141,0.1141,0.1109,0.1089,0.1093,0.1079,0.108,0.1076,0.1059,0.107,0.1057,0.1046,0.1063,0.1042,0.1044,0.1035,0.1035,0.1018,0.1036,0.1023,0.1019,0.1014,0.1008,0.1115,0.1016,0.1017,0.1017,0.1017,0.1018,0,0.1,0.1005,0.0992,0.0987,0.0976,0.1003,0.1001,0.0989,0.097,0.0971,0.096,0.0941,0.0927,0.0938,0.0926,0.091,0.0921,0.0906,0.0906,0.0906,0.0993,0.1001,0.0898,0.0898,0.0898,0.0898,0.0898,0.0898,0.0942,0.0909,0.0921,0.0889,0.0895,0.0874,0.0871,0.0868,0.0868,0.0845,0.0834,0.0843,0.0847,0.0836,0.0824,0.0828,0.0821,0.0801,0.0809,0.0888,0.09,0.0911,0.0919,0.08,0.08,0.0723,0.0723,0.0722]},{"header":{"parameterUnit":"m.s-1","parameterCategory":1,"la1":30.2991,"la2":30.254,"lo1":-89.0895,"lo2":-89.0444,"dy":0.0017,"dx":0.0017,"nx":28,"ny":28,"refTime":"2025-01-16T03:00:00:Z","depth":0,"parameterNumber":3,"parameterNumberName":"V-component_of_WINDS"},"data":[0,0,0,0,0,0,0,0,0,0,0,0,0,0,0,0,0,0,0,0,0,0,0,0,0,0,0,0,0,0,0,0,0,0,0,0,0,0,0,0,0,0,0,0,0,0,0,0,0,0,0,0,0,0,0,0,0,0,-2.0583,-2.0583,0,-2.0643,-2.0643,-2.0644,-2.0639,-2.0638,-2.0637,-2.0636,-2.0695,-2.0697,-2.0699,0,0,0,0,0,0,0,0,0,0,0,0,0,-2.046,-2.0463,-2.0582,-2.0583,-2.0584,-2.0642,-2.0643,-2.0644,-2.0639,-2.0638,-2.0636,-2.0635,-2.0694,-2.0697,-2.07,0,0,0,0,0,0,0,0,0,0,0,0,0,-2.0516,-2.0463,-2.0582,-2.0588,-2.059,-2.0642,-2.0643,-2.0644,-2.0639,-2.0638,-2.0636,-2.0635,-2.0693,-2.0696,-2.07,-2.075,0,0,-2.0711,-2.0713,0,0,0,0,0,0,0,0,-2.0513,-2.0521,-2.0587,-2.0588,-2.0589,-2.0632,-2.0622,-2.068,-2.0639,-2.062,-2.0636,-2.0634,-2.0675,-2.068,-2.0694,-2.0753,-2.0755,-2.0711,-2.0714,-2.0715,-2.0716,0,0,0,0,0,0,0,-2.0509,-2.0518,-2.0606,-2.0588,-2.0589,-2.0587,-2.0594,-2.0633,-2.0654,-2.0622,-2.0621,-2.0629,-2.0675,-2.069,-2.0695,-2.0756,-2.0711,-2.0715,-2.0717,-2.0718,-2.0858,-2.0859,0,0,0,0,0,0,-2.0504,-2.0515,-2.0604,-2.0608,-2.0547,-2.059,-2.0598,-2.0619,-2.0654,-2.0658,-2.063,-2.0628,-2.0685,-2.0691,-2.0697,-2.0757,-2.0715,-2.0719,-2.0721,-2.0856,-2.0858,-2.086,0,0,0,0,0,0,-2.0502,-2.0512,-2.0602,-2.0561,-2.0573,-2.0594,-2.0619,-2.0621,-2.0637,-2.066,-2.0664,-2.0642,-2.0684,-2.0692,-2.0737,-2.0759,-2.072,-2.0724,-2.0854,-2.0857,-2.0859,-2.0878,0,0,0,0,0,0,-2.0498,-2.0511,-2.0531,-2.0562,-2.0575,-2.0641,-2.062,-2.0624,-2.0643,-2.0642,-2.0672,-2.0676,-2.0684,-2.0731,-2.074,-2.0764,-2.0726,-2.0852,-2.0855,-2.0858,-2.0876,-2.0881,-2.0885,0,0,0,0,0,-2.0494,-2.0534,-2.0532,-2.0543,-2.06,-2.0643,-2.065,-2.0659,-2.0645,-2.0665,-2.068,-2.0675,-2.0755,-2.0736,-2.0746,-2.0771,-2.0851,-2.0854,-2.0858,-2.0873,-2.088,-2.0885,0,0,0,0,0,0,-2.0504,-2.0538,-2.0537,-2.0588,-2.0613,-2.0642,-2.0667,-2.0665,-2.0694,-2.0691,-2.07,-2.0707,-2.0752,-2.0766,-2.0744,-2.082,-2.0801,-2.0807,-2.081,-2.0816,-2.0821,-2.0816,-2.0729,0,0,0,0,0,-2.0513,-2.0546,-2.0573,-2.0615,-2.0628,-2.0645,-2.0664,-2.0669,-2.0694,-2.0704,-2.0723,-2.0747,-2.0777,-2.0797,-2.0827,-2.0878,-2.0884,-2.0899,-2.0904,-2.0908,-2.0913,-2.094,-2.0947,-2.0871,-2.0871,-2.0871,0,0,-2.0531,-2.0553,-2.0573,-2.0618,-2.0638,-2.067,-2.0654,-2.0689,-2.0713,-2.0709,-2.0753,-2.0767,-2.0794,-2.0842,-2.0864,-2.0855,-2.0935,-2.0913,-2.0915,-2.0918,-2.0944,-2.0951,-2.0958,-2.0873,-2.0873,-2.0872,0,0,-2.0579,-2.06,-2.0637,-2.0657,-2.0688,-2.0699,-2.0708,-2.0737,-2.0747,-2.0791,-2.0788,-2.0816,-2.0869,-2.0889,-2.0906,-2.0961,-2.0958,-2.0971,-2.0996,-2.1022,-2.1028,-2.1033,-2.1053,-2.106,-2.0975,-2.0975,-2.0975,0,-2.0597,-2.0647,-2.0657,-2.0692,-2.0712,-2.0711,-2.0748,-2.0767,-2.0805,-2.0818,-2.0808,-2.0874,-2.0892,-2.0944,-2.0958,-2.0972,-2.0981,-2.0967,-2.1027,-2.1032,-2.1037,-2.1056,-2.1063,-2.0977,-2.0976,-2.0976,-2.0976,0,-2.0667,-2.0702,-2.0728,-2.0766,-2.0788,-2.0825,-2.0839,-2.086,-2.0863,-2.0875,-2.0919,-2.0941,-2.0975,-2.0988,-2.099,-2.104,-2.1033,-2.1025,-2.1006,-2.1046,-2.1063,-2.107,-2.0978,-2.0978,-2.0978,-2.0977,0,0,-2.0724,-2.0767,-2.0776,-2.0793,-2.0826,-2.0852,-2.0888,-2.0922,-2.094,-2.0966,-2.0996,-2.104,-2.1033,-2.1052,-2.1056,-2.108,-2.1121,-2.1068,-2.1069,-2.1077,-2.1176,-2.1183,-2.1191,-2.1119,-2.1121,-2.1122,-2.1174,0,-2.0776,-2.0841,-2.085,-2.0907,-2.0938,-2.0937,-2.0969,-2.0992,-2.1004,-2.1031,-2.1044,-2.1075,-2.1063,-2.1075,-2.1097,-2.1112,-2.1141,-2.1108,-2.1146,-2.1147,-2.1139,-2.12,-2.1207,-2.1255,-2.1181,-2.1182,-2.1183,0,-2.0845,-2.0874,-2.0934,-2.0962,-2.0976,-2.1004,-2.1035,-2.1062,-2.1088,-2.1095,-2.1116,-2.1118,-2.1154,-2.1133,-2.1183,-2.116,-2.1176,-2.1185,-2.1187,-2.119,-2.1167,-2.1205,-2.127,-2.1278,-2.1194,-2.1193,-2.1192,0,-2.0881,-2.0934,-2.0977,-2.0991,-2.1025,-2.1045,-2.106,-2.1084,-2.1104,-2.1131,-2.1143,-2.1174,-2.1191,-2.1214,-2.1223,-2.1208,-2.1272,-2.1252,-2.1278,-2.1278,-2.1291,-2.129,-2.136,-2.1302,-2.1302,-2.1302,-2.1302,0,-2.0937,-2.0974,-2.0993,-2.1019,-2.106,-2.107,-2.1109,-2.1123,-2.1145,-2.1173,-2.1174,-2.12,-2.1211,-2.1239,-2.1247,-2.1286,-2.1293,-2.1299,-2.1301,-2.1299,-2.1298,-2.131,-2.1306,-2.1304,-2.1303,-2.1303,-2.1303,0,-2.0983,-2.0998,-2.1044,-2.1073,-2.1081,-2.1109,-2.1133,-2.1158,-2.117,-2.1205,-2.1214,-2.1232,-2.1265,-2.1277,-2.1316,-2.1321,-2.1367,-2.1365,-2.1358,-2.1358,-2.1383,-2.138,-2.1462,-2.1473,-2.1409,-2.1409,-2.141,0,-2.1019,-2.1047,-2.1079,-2.1098,-2.1114,-2.1145,-2.1165,-2.1175,-2.1196,-2.1227,-2.1248,-2.128,-2.1307,-2.1359,-2.1375,-2.1405,-2.1404,-2.1431,-2.1409,-2.1406,-2.1404,-2.1402,-2.1405,-2.1435,-2.1435,-2.1436,-2.1436,0,-2.1079,-2.1085,-2.1114,-2.1146,-2.117,-2.1196,-2.122,-2.1236,-2.125,-2.1273,-2.1306,-2.1327,-2.1367,-2.1399,-2.143,-2.1444,-2.1442,-2.1443,-2.1451,-2.1449,-2.1444,-2.1447,-2.1369,-2.1441,-2.1441,-2.1441,-2.144,-2.144,-2.1121,-2.1146,-2.1172,-2.1204,-2.1224,-2.1247,-2.1271,-2.1286,-2.1315,-2.1349,-2.1353,-2.1389,-2.1413,-2.1454,-2.147,-2.1498,-2.149,-2.1501,-2.1504,-2.1506,-2.1508,-2.144,-2.1503,-2.1503,-2.1503,-2.1503,-2.1503,0,-2.1181,-2.1198,-2.1228,-2.1262,-2.1288,-2.1285,-2.1311,-2.1332,-2.1364,-2.1387,-2.1414,-2.1452,-2.1483,-2.1501,-2.1532,-2.155,-2.155,-2.1558,-2.1557,-2.156,-2.1513,-2.1503,-2.1558,-2.1558,-2.1558,-2.1558,-2.1558,-2.1558,-2.1216,-2.1257,-2.1266,-2.1317,-2.1333,-2.1369,-2.1385,-2.1405,-2.1424,-2.1467,-2.1493,-2.1505,-2.1526,-2.1558,-2.1586,-2.159,-2.1601,-2.161,-2.1613,-2.1569,-2.1563,-2.1558,-2.1549,-2.1612,-2.1612,-2.1658,-2.1658,-2.1659]}]]